Weather History for KSMQ - July, 2013

Change the Weather History Date:

Monday, July 15, 2013

  Actual Average Record
Temperature  
Mean Temperature 82 °F -  
Max Temperature 95 °F 86 °F 95 °F (1974)
Min Temperature 69 °F 63 °F 50 °F (1941)
Cooling Degree Days 17    
Growing Degree Days 32 (Base 50)    
Moisture  
Dew Point 72 °F    
Average Humidity 80    
Maximum Humidity 100    
Minimum Humidity 46    
Precipitation  
Precipitation 0.00 in - - ()
Sea Level Pressure  
Sea Level Pressure 30.20 in    
Wind  
Wind Speed 1 mph (NW)    
Max Wind Speed 7 mph    
Max Gust Speed -    
Visibility 8 miles    
Events      
Averages and records for this station are not official NWS values.
T = Trace of Precipitation, MM = Missing Value Source: NWS Daily Summary

Daily Weather History Graph

Daily Weather History Graph

Search for Another Location

Airport or City:

Trip Planner

Search our weather history database for the weather conditions in past years. The results will help you decide how hot, cold, wet, or windy it might be!

Date:

Astronomy

Jul. 15, 2013 Rise Set
Actual Time 5:40 AM EDT 8:28 PM EDT
Civil Twilight 5:08 AM EDT 9:00 PM EDT
Nautical Twilight 4:27 AM EDT 9:40 PM EDT
Astronomical Twilight 3:41 AM EDT 10:27 PM EDT
Moon 1:00 PM EDT (7/15) No Moon Set
Length of Visible Light 15h 51m
Length of Day
14h 47m
Waxing Crescent, 45% of the Moon is Illuminated
Jul 15
Waxing Crescent
Jul 15
First Quarter
Jul 22
Full
Jul 29
Last Quarter
Aug 6
New

Hourly Weather History & Observations

Time (EDT) Temp. Heat Index Dew Point Humidity Pressure Visibility Wind Dir Wind Speed Gust Speed Precip Events Conditions
12:53 AM 73.9 °F - 71.1 °F 91% 30.24 in 10.0 mi Calm Calm - N/A   Clear
1:53 AM 72.0 °F - 70.0 °F 93% 30.24 in 9.0 mi Calm Calm - N/A   Clear
2:53 AM 71.1 °F - 70.0 °F 96% 30.24 in 7.0 mi Calm Calm - N/A   Clear
3:39 AM 71.6 °F - 69.8 °F 94% 30.24 in 1.8 mi Calm Calm - N/A   Clear
3:51 AM 71.6 °F - 69.8 °F 94% 30.24 in 3.0 mi Calm Calm - N/A   Clear
3:53 AM 71.1 °F - 69.1 °F 93% 30.24 in 4.0 mi Calm Calm - N/A   Clear
4:49 AM 69.8 °F - 69.8 °F 100% 30.24 in 1.8 mi Calm Calm - N/A   Clear
4:53 AM 70.0 °F - 69.1 °F 97% 30.24 in 1.5 mi Calm Calm - N/A   Clear
5:07 AM 69.8 °F - 69.8 °F 100% 30.24 in 3.0 mi Calm Calm - N/A   Clear
5:53 AM 70.0 °F - 69.1 °F 97% 30.25 in 7.0 mi North - - N/A   Clear
6:12 AM 69.8 °F - 69.8 °F 100% 30.25 in 1.8 mi Calm Calm - N/A   Clear
6:23 AM 69.8 °F - 69.8 °F 100% 30.25 in 3.0 mi Calm Calm - N/A   Clear
6:53 AM 71.1 °F - 70.0 °F 96% 30.25 in 8.0 mi North - - N/A   Clear
7:53 AM 78.1 °F - 73.0 °F 84% 30.25 in 10.0 mi Calm Calm - N/A   Clear
8:53 AM 84.0 °F 89.6 °F 72.0 °F 67% 30.24 in 10.0 mi West 6.9 mph - N/A   Clear
9:53 AM 87.1 °F 92.8 °F 71.1 °F 59% 30.22 in 10.0 mi Variable 3.5 mph - N/A   Clear
10:53 AM 87.1 °F 94.5 °F 73.0 °F 63% 30.22 in 10.0 mi Calm Calm - N/A   Clear
11:53 AM 91.0 °F 99.3 °F 73.0 °F 55% 30.21 in 10.0 mi Variable 3.5 mph - N/A   Clear
12:53 PM 93.0 °F 100.7 °F 72.0 °F 50% 30.19 in 10.0 mi Variable 6.9 mph - N/A   Clear
1:53 PM 95.0 °F 102.5 °F 71.1 °F 46% 30.17 in 10.0 mi NNW 5.8 mph - N/A   Scattered Clouds
2:53 PM 93.9 °F 100.8 °F 71.1 °F 47% 30.16 in 10.0 mi NW 6.9 mph - 0.00 in   Clear
3:53 PM 91.9 °F 101.3 °F 73.9 °F 55% 30.15 in 10.0 mi Calm Calm - N/A   Mostly Cloudy
4:53 PM 89.1 °F 103.2 °F 78.1 °F 70% 30.14 in 10.0 mi Calm Calm - 0.00 in   Partly Cloudy
5:53 PM 93.0 °F 103.2 °F 73.9 °F 54% 30.13 in 10.0 mi Calm Calm - N/A   Scattered Clouds
6:53 PM 91.9 °F 101.3 °F 73.9 °F 55% 30.13 in 10.0 mi NNW 4.6 mph - N/A   Clear
7:53 PM 84.9 °F 93.3 °F 75.0 °F 72% 30.13 in 10.0 mi Calm Calm - N/A   Clear
8:53 PM 81.0 °F 87.3 °F 75.9 °F 85% 30.13 in 10.0 mi Calm Calm - N/A   Clear
9:53 PM 80.1 °F 85.4 °F 75.9 °F 87% 30.15 in 10.0 mi Calm Calm - N/A   Clear
10:53 PM 78.1 °F - 75.9 °F 93% 30.15 in 8.0 mi Calm Calm - N/A   Clear
11:53 PM 75.9 °F - 75.0 °F 97% 30.16 in 6.0 mi Calm Calm - N/A   Clear